EW9138 Weather Reports


Display with metric or nautical units.
time (UTC)temp
F
wind
direction
speed
MPH
gust
MPH
rain 1hr
in
rain 24hr
in
rain mn
in
humidity
%
barometer
mb
20260505092305 56 211 2.0 2.0 0.03 0.04 0.04 92 1015.5
20260505091302 56 215 1.0 5.0 0.03 0.03 0.03 91 1015.4
20260505090302 56 15 1.0 3.0 0.03 0.03 0.03 91 1015.4
20260505085802 56 47 1.0 3.0 0.03 0.03 0.03 90 1015.6
20260505085304 57 40 2.0 3.0 0.03 0.03 0.03 89 1015.6
20260505083802 57 63 1.0 6.0 0.02 0.02 0.02 87 1015.4
20260505083303 58 65 0.0 6.0 0.01 0.01 0.01 87 1015.4
20260505082802 58 48 0.0 0.0 0.01 0.01 0.01 86 1015.2
20260505081803 58 84 0.0 0.0 0.00 0.00 0.00 84 1015.2
20260505081303 58 85 0.0 0.0 0.00 0.00 0.00 83 1015.2
20260505080803 58 85 0.0 0.0 0.00 0.00 0.00 82 1015.2
20260505080303 58 98 0.0 0.0 0.00 0.00 0.00 82 1015.2
20260505075802 58 98 0.0 0.0 0.00 0.00 0.00 80 1015.2
20260505075304 58 94 0.0 0.0 0.00 0.00 0.00 81 1015.2
20260505074803 58 94 0.0 0.0 0.00 0.00 0.00 81 1015.2
20260505073302 58 226 0.0 0.0 0.00 0.00 0.00 81 1014.9
20260505072803 58 226 0.0 0.0 0.00 0.00 0.00 80 1015.0
20260505071803 57 227 0.0 0.0 0.00 0.00 0.00 80 1015.0
20260505071302 57 210 0.0 1.0 0.00 0.00 0.00 80 1015.0
20260505070803 57 258 0.0 1.0 0.00 0.00 0.00 80 1015.0
20260505070303 57 174 0.0 1.0 0.00 0.00 0.00 81 1015.0
20260505065304 57 233 0.0 0.0 0.00 0.00 0.00 81 1015.0
20260505064802 56 4 0.0 0.0 0.00 0.00 0.00 82 1015.0
20260505064302 56 293 0.0 0.0 0.00 0.00 0.00 82 1015.1
20260505063303 56 215 0.0 0.0 0.00 0.00 0.00 84 1015.1
20260505061802 56 260 0.0 0.0 0.00 0.00 0.00 83 1015.0
20260505061303 56 244 0.0 0.0 0.00 0.00 0.00 85 1015.0
20260505060802 56 244 0.0 0.0 0.00 0.00 0.00 85 1015.0
20260505055803 56 244 0.0 0.0 0.00 0.00 0.00 83 1014.8
20260505055303 55 244 0.0 0.0 0.00 0.00 0.00 84 1014.8
20260505054803 55 272 0.0 0.0 0.00 0.00 0.00 84 1014.8
20260505054303 55 270 0.0 0.0 0.00 0.00 0.00 85 1014.7
20260505053803 55 310 0.0 0.0 0.00 0.00 0.00 86 1014.7
20260505053303 55 311 0.0 0.0 0.00 0.00 0.00 85 1014.7
20260505052803 55 286 0.0 0.0 0.00 0.00 0.00 85 1014.7
20260505052304 55 280 0.0 0.0 0.00 0.00 0.00 85 1014.7
20260505051803 55 269 0.0 0.0 0.00 0.00 0.00 84 1014.7
20260505051303 54 251 0.0 0.0 0.00 0.00 0.00 84 1014.7
20260505050803 54 266 0.0 0.0 0.00 0.00 0.00 86 1014.7
20260505050302 54 273 0.0 0.0 0.00 0.00 0.00 87 1014.7
20260505041302 54 287 0.0 0.0 0.00 0.00 0.00 87 1015.0
20260505040802 54 287 0.0 0.0 0.00 0.00 0.00 87 1015.0
20260505040304 54 287 0.0 0.0 0.00 0.00 0.00 86 1015.0
20260505035803 54 287 0.0 0.0 0.00 0.00 0.00 86 1015.0
20260505035304 54 287 0.0 0.0 0.00 0.00 0.00 86 1015.0
20260505034802 54 269 0.0 0.0 0.00 0.00 0.00 85 1015.0
20260505034303 54 218 0.0 0.0 0.00 0.00 0.00 86 1015.1
20260505033803 54 218 0.0 0.0 0.00 0.00 0.00 85 1015.1
20260505033303 54 218 0.0 0.0 0.00 0.00 0.00 84 1015.1
20260505032804 54 214 0.0 0.0 0.00 0.00 0.00 84 1015.2
20260505031802 55 278 0.0 0.0 0.00 0.00 0.00 83 1015.2
20260505031302 55 278 0.0 0.0 0.00 0.00 0.00 83 1015.3
20260505030803 54 278 0.0 0.0 0.00 0.00 0.00 82 1015.3
20260505030302 54 287 0.0 0.0 0.00 0.00 0.00 82 1015.3
20260505025804 54 297 0.0 0.0 0.00 0.00 0.00 82 1015.3
20260505025304 54 226 0.0 0.0 0.00 0.00 0.00 82 1015.3
20260505024802 54 226 0.0 0.0 0.00 0.00 0.00 81 1015.3
20260505024303 54 226 0.0 0.0 0.00 0.00 0.00 81 1015.4
20260505023303 54 226 0.0 0.0 0.00 0.00 0.00 81 1015.4
20260505022803 54 226 0.0 0.0 0.00 0.00 0.00 81 1015.4
20260505022304 54 226 0.0 0.0 0.00 0.00 0.00 82 1015.4
20260505021803 55 269 0.0 0.0 0.00 0.00 0.00 82 1015.4
20260505021303 55 269 0.0 0.0 0.00 0.00 0.00 81 1015.6
20260505020803 55 221 0.0 0.0 0.00 0.00 0.00 81 1015.6
20260505020303 55 217 0.0 0.0 0.00 0.00 0.00 81 1015.6
20260505015803 55 217 0.0 0.0 0.00 0.00 0.00 80 1015.7
20260505015304 55 217 0.0 0.0 0.00 0.00 0.00 80 1015.7
20260505014803 55 217 0.0 0.0 0.00 0.00 0.00 80 1015.7
20260505013303 55 217 0.0 0.0 0.00 0.00 0.00 77 1015.9
20260505012804 55 268 0.0 0.0 0.00 0.00 0.00 76 1016.1
20260505012304 55 262 0.0 0.0 0.00 0.00 0.00 75 1016.1
20260505011804 55 262 0.0 0.0 0.00 0.00 0.00 76 1016.1
20260505011303 55 262 0.0 0.0 0.00 0.00 0.00 75 1016.2
20260505010803 55 262 0.0 0.0 0.00 0.00 0.00 75 1016.2
20260505010303 55 262 0.0 0.0 0.00 0.00 0.00 75 1016.2
20260505005803 55 262 0.0 0.0 0.00 0.00 0.00 74 1016.3
20260505004803 56 262 0.0 0.0 0.00 0.00 0.00 73 1016.3
20260505004303 56 262 0.0 0.0 0.00 0.00 0.00 73 1016.4
20260505003803 56 262 0.0 0.0 0.00 0.00 0.00 72 1016.4
20260505002304 56 262 0.0 0.0 0.00 0.00 0.00 72 1016.6
20260505001804 56 262 0.0 0.0 0.00 0.00 0.00 71 1016.6
20260505001304 56 284 0.0 0.0 0.00 0.00 0.00 72 1016.7
20260504235304 57 283 0.0 3.0 0.00 0.00 0.00 72 1016.8
20260504234803 57 283 0.0 3.0 0.00 0.00 0.00 72 1016.8
20260504234304 57 213 0.0 0.0 0.00 0.00 0.00 71 1016.9
20260504233303 58 213 0.0 2.0 0.00 0.00 0.00 70 1016.9
20260504232804 58 350 0.0 2.0 0.00 0.00 0.00 68 1017.0
20260504232304 57 342 0.0 3.0 0.00 0.00 0.00 67 1017.0
20260504231804 57 271 0.0 3.0 0.00 0.00 0.00 67 1017.0
20260504231303 57 272 0.0 3.0 0.00 0.00 0.00 68 1017.1
20260504230804 58 272 0.0 2.0 0.00 0.00 0.00 69 1017.1
20260504225804 58 272 0.0 2.0 0.00 0.00 0.00 69 1017.2
20260504225304 58 272 1.0 2.0 0.00 0.00 0.00 69 1017.2
20260504224804 59 272 1.0 3.0 0.00 0.00 0.00 69 1017.2
20260504224304 59 313 1.0 5.0 0.00 0.00 0.00 66 1017.2
20260504223803 59 281 1.0 5.0 0.00 0.00 0.00 64 1017.2
20260504223303 59 54 0.0 2.0 0.00 0.00 0.00 65 1017.2
20260504221803 59 56 0.0 2.0 0.00 0.00 0.00 66 1017.2
20260504220850 60 296 1.0 3.0 0.00 0.00 0.00 66 1017.3
20260504220305 60 296 2.0 3.0 0.00 0.00 0.00 63 1017.3
20260504215305 60 340 2.0 5.0 0.00 0.00 0.00 63 1017.3
20260504214303 60 17 2.0 3.0 0.00 0.00 0.00 62 1017.4
20260504213804 61 309 2.0 6.0 0.00 0.00 0.00 63 1017.4
20260504213303 61 47 2.0 6.0 0.00 0.00 0.00 63 1017.4
20260504212803 61 59 2.0 6.0 0.00 0.00 0.00 63 1017.5
20260504212304 61 60 2.0 5.0 0.00 0.00 0.00 64 1017.5
20260504211804 61 29 2.0 5.0 0.00 0.00 0.00 64 1017.5
20260504211304 61 47 2.0 5.0 0.00 0.00 0.00 64 1017.5
20260504210803 61 28 2.0 5.0 0.00 0.00 0.00 66 1017.5
20260504205804 61 67 3.0 8.0 0.00 0.00 0.00 67 1017.4
20260504203303 62 105 2.0 5.0 0.00 0.00 0.00 67 1017.3
20260504202305 62 42 3.0 6.0 0.00 0.00 0.00 67 1017.3
20260504201803 62 71 3.0 6.0 0.00 0.00 0.00 67 1017.3
20260504201303 62 76 2.0 6.0 0.00 0.00 0.00 66 1017.2
20260504200305 63 53 2.0 7.0 0.00 0.00 0.00 65 1017.2
20260504195803 63 47 2.0 5.0 0.00 0.00 0.00 65 1017.2
20260504195304 63 70 1.0 5.0 0.00 0.00 0.00 65 1017.2
20260504194804 63 18 1.0 5.0 0.00 0.00 0.00 65 1017.2
20260504194303 63 69 0.0 5.0 0.00 0.00 0.00 65 1017.1
20260504193303 64 78 0.0 2.0 0.00 0.00 0.00 65 1017.1
20260504192804 64 273 0.0 2.0 0.00 0.00 0.00 65 1016.9
20260504192304 64 273 1.0 3.0 0.00 0.00 0.00 64 1016.9
20260504191304 64 229 1.0 3.0 0.00 0.00 0.00 64 1016.8
20260504190804 64 171 1.0 3.0 0.00 0.00 0.00 64 1016.8
20260504190304 64 49 2.0 2.0 0.00 0.00 0.00 64 1016.8
20260504185804 64 49 2.0 5.0 0.00 0.00 0.00 63 1016.7
20260504185305 64 49 2.0 5.0 0.00 0.00 0.00 63 1016.7
20260504184803 65 58 2.0 5.0 0.00 0.00 0.00 63 1016.7
20260504184303 65 43 2.0 5.0 0.00 0.00 0.00 62 1016.7
20260504183804 65 48 2.0 5.0 0.00 0.00 0.00 61 1016.7
20260504183304 66 255 2.0 5.0 0.00 0.00 0.00 60 1016.7
20260504182304 66 31 2.0 3.0 0.00 0.00 0.00 59 1016.7
20260504181803 66 48 2.0 3.0 0.00 0.00 0.00 59 1016.7
20260504181304 66 47 2.0 5.0 0.00 0.00 0.00 58 1016.5
20260504180804 66 65 2.0 5.0 0.00 0.00 0.00 58 1016.5
20260504180303 66 335 3.0 5.0 0.00 0.00 0.00 57 1016.5
20260504175804 66 30 3.0 6.0 0.00 0.00 0.00 56 1016.3
20260504175304 66 65 2.0 6.0 0.00 0.00 0.00 56 1016.3
20260504174804 67 59 2.0 6.0 0.00 0.00 0.00 55 1016.3
20260504174303 67 53 2.0 5.0 0.00 0.00 0.00 54 1016.3
20260504173804 67 60 2.0 5.0 0.00 0.00 0.00 52 1016.3
20260504173304 68 66 2.0 5.0 0.00 0.00 0.00 52 1016.3
20260504172304 68 41 2.0 5.0 0.00 0.00 0.00 51 1016.3
20260504171803 68 42 2.0 5.0 0.00 0.00 0.00 51 1016.3
20260504171304 68 50 2.0 5.0 0.00 0.00 0.00 50 1016.3
20260504170803 69 69 2.0 5.0 0.00 0.00 0.00 52 1016.3
20260504170303 69 70 1.0 3.0 0.00 0.00 0.00 51 1016.3
20260504160305 71 68 2.0 5.0 0.00 0.00 0.00 49 1016.4
20260504150806 75 73 2.0 8.0 0.00 0.00 0.00 38 1016.4
20260504150304 76 348 3.0 8.0 0.00 0.00 0.00 38 1016.4
20260504141305 75 51 2.0 6.0 0.00 0.00 0.00 37 1016.8
20260504140303 75 54 2.0 8.0 0.00 0.00 0.00 36 1016.8
20260504130804 75 343 2.0 6.0 0.00 0.00 0.00 39 1017.2
20260504130304 75 73 2.0 5.0 0.00 0.00 0.00 38 1017.2
20260504120304 74 252 3.0 8.0 0.00 0.00 0.00 39 1017.6
20260504110304 72 258 2.0 6.0 0.00 0.00 0.00 45 1017.6
20260504100307 67 172 2.0 6.0 0.00 0.00 0.00 55 1018.3